[[{"header":{"parameterUnit":"m.s-1","parameterCategory":1,"la1":30.2991,"la2":30.254,"lo1":-89.0895,"lo2":-89.0444,"dy":0.0017,"dx":0.0017,"nx":28,"ny":28,"refTime":"2025-07-08T21:00:00:Z","depth":0,"parameterNumber":2,"parameterNumberName":"U-component_of_WINDS"},"data":[0,0,0,0,0,0,0,0,0,0,0,0,0,0,0,0,0,0,0,0,0,0,0,0,0,0,0,0,0,0,0,0,0,0,0,0,0,0,0,0,0,0,0,0,0,0,0,0,0,0,0,0,0,0,0,0,0,0,3.9539,3.954,0,3.9635,3.9636,3.9637,3.9509,3.9504,3.9499,3.9495,3.9596,3.9603,3.961,0,0,0,0,0,0,0,0,0,0,0,0,0,3.9246,3.9252,3.9539,3.954,3.9541,3.9635,3.9636,3.9637,3.9509,3.9504,3.9498,3.9493,3.9594,3.9602,3.961,0,0,0,0,0,0,0,0,0,0,0,0,0,3.9361,3.9254,3.9538,3.9488,3.9485,3.9634,3.9636,3.9638,3.9511,3.9504,3.9497,3.949,3.9591,3.9601,3.9612,3.9815,0,0,3.9644,3.9648,0,0,0,0,0,0,0,0,3.9354,3.9372,3.9495,3.9492,3.9488,3.9552,3.957,3.9697,3.9512,3.9501,3.9495,3.9487,3.9587,3.9598,3.9631,3.982,3.9825,3.9645,3.9651,3.9656,3.9659,0,0,0,0,0,0,0,3.9347,3.9367,3.9577,3.9496,3.9493,3.9462,3.947,3.9593,3.9582,3.9501,3.9492,3.9505,3.9584,3.9621,3.9633,3.9826,3.9644,3.9654,3.966,3.9664,4.0187,4.0194,0,0,0,0,0,0,3.9344,3.9361,3.9574,3.9579,3.9403,3.9473,3.9482,3.9539,3.958,3.958,3.9511,3.9499,3.9607,3.962,3.9636,3.9877,3.9655,3.9665,3.9671,4.0179,4.0188,4.0196,0,0,0,0,0,0,3.9338,3.9364,3.957,3.9468,3.9492,3.9485,3.955,3.9545,3.9581,3.9588,3.9585,3.9551,3.9602,3.9621,3.9771,3.9878,3.967,3.968,4.017,4.0182,4.0192,4.0361,0,0,0,0,0,0,3.9331,3.9363,3.944,3.947,3.9497,3.9704,3.9556,3.9551,3.9599,3.9584,3.9624,3.9624,3.9598,3.9756,3.9782,3.9889,3.9688,4.0161,4.0175,4.0189,4.0346,4.0377,4.0403,0,0,0,0,0,3.9321,3.9485,3.9445,3.9471,3.9594,3.971,3.9726,3.9691,3.9609,3.9686,3.969,3.9623,3.9862,3.9773,3.98,3.9913,4.0154,4.0171,4.0188,4.0333,4.0371,4.0403,0,0,0,0,0,0,3.9468,3.9488,3.9444,3.9622,3.9666,3.9688,3.9785,3.9733,3.9801,3.9784,3.9739,3.9749,3.991,3.9926,3.9826,4.0112,3.9994,4.0018,4.0096,4.0131,4.0159,4.0153,3.9697,0,0,0,0,0,3.9521,3.9614,3.9626,3.9783,3.9806,3.9793,3.9842,3.9812,3.9855,3.9873,3.9888,3.9933,4.0018,4.0075,4.0154,4.0347,4.0354,4.0438,4.0467,4.049,4.0511,4.0614,4.0651,4.0252,4.0252,4.0252,0,0,3.9633,3.9655,3.9716,3.9813,3.9843,3.994,3.9809,3.9917,3.9989,3.989,4.0032,4.0045,4.0093,4.0265,4.0342,4.0284,4.0623,4.0512,4.053,4.0539,4.0635,4.0673,4.0707,4.0264,4.0262,4.026,0,0,3.9885,3.9911,4.0044,4.0076,4.0123,4.0112,4.0144,4.0175,4.0179,4.0322,4.0249,4.0334,4.0482,4.0518,4.0557,4.0822,4.0763,4.0849,4.0999,4.11,4.1131,4.1159,4.1254,4.1288,4.087,4.087,4.087,0,4.0017,4.016,4.0119,4.0233,4.0278,4.019,4.0325,4.0358,4.0429,4.0462,4.0395,4.0579,4.0605,4.0784,4.0849,4.0883,4.0918,4.0845,4.113,4.1157,4.1182,4.1272,4.1308,4.088,4.0879,4.0878,4.0877,0,4.0321,4.0422,4.0523,4.0593,4.0649,4.0773,4.075,4.0812,4.0777,4.0774,4.092,4.0947,4.103,4.107,4.1037,4.1246,4.1208,4.1137,4.1018,4.1231,4.1315,4.1349,4.0895,4.0891,4.0888,4.0886,0,0,4.067,4.0714,4.0752,4.0782,4.0827,4.0904,4.1024,4.1103,4.1157,4.1209,4.1308,4.1435,4.1369,4.1412,4.1382,4.1471,4.1679,4.1388,4.1389,4.1442,4.1911,4.1965,4.2005,4.164,4.1646,4.1651,4.1907,0,4.0922,4.1128,4.1094,4.1294,4.1386,4.1305,4.1409,4.1448,4.1448,4.1527,4.1526,4.1617,4.1523,4.1548,4.1632,4.1636,4.1773,4.1617,4.1733,4.1737,4.1724,4.2049,4.2106,4.2346,4.1939,4.1945,4.1949,0,4.1244,4.1306,4.1516,4.1545,4.1582,4.1677,4.1747,4.1823,4.1865,4.1859,4.1907,4.1861,4.198,4.186,4.2024,4.1919,4.1964,4.1973,4.1981,4.1991,4.1856,4.2068,4.2421,4.2458,4.2,4.1996,4.1992,0,4.1478,4.1614,4.1756,4.1785,4.1823,4.1891,4.191,4.1945,4.1995,4.2057,4.2089,4.2164,4.2206,4.2265,4.224,4.2154,4.241,4.2287,4.2408,4.2409,4.2466,4.2463,4.2833,4.2495,4.2495,4.2494,4.2493,0,4.1763,4.1895,4.1862,4.195,4.2094,4.2054,4.2198,4.2207,4.2239,4.2328,4.2262,4.2346,4.2308,4.239,4.2372,4.2511,4.253,4.2529,4.2522,4.2535,4.2535,4.2564,4.2547,4.2504,4.2502,4.25,4.2498,0,4.2049,4.2032,4.2182,4.2205,4.2214,4.232,4.234,4.2422,4.2416,4.2529,4.2553,4.2545,4.2638,4.2619,4.2722,4.2709,4.2884,4.2857,4.287,4.2863,4.2986,4.2975,4.3387,4.3439,4.3068,4.3072,4.3075,0,4.2232,4.2331,4.2365,4.2419,4.2443,4.2531,4.2581,4.2545,4.26,4.2655,4.2731,4.2818,4.2886,4.3038,4.3042,4.312,4.3094,4.3234,4.3106,4.3115,4.3097,4.3091,4.3101,4.3259,4.3263,4.3267,4.327,0,4.256,4.2546,4.2621,4.2693,4.2755,4.2811,4.286,4.2908,4.2875,4.2941,4.3035,4.3087,4.3191,4.3279,4.3351,4.3371,4.3316,4.331,4.3342,4.3356,4.3359,4.3359,4.2939,4.3301,4.3298,4.3295,4.3294,4.3292,4.28,4.2883,4.292,4.3005,4.3038,4.3085,4.3164,4.3167,4.3245,4.3326,4.33,4.3407,4.3446,4.3538,4.3566,4.3649,4.3597,4.3644,4.3656,4.3668,4.3683,4.3346,4.3662,4.3661,4.3661,4.366,4.3659,0,4.3123,4.3142,4.3221,4.3291,4.3359,4.33,4.3351,4.3411,4.3506,4.3547,4.3614,4.3722,4.3806,4.3816,4.3896,4.396,4.3937,4.3983,4.3978,4.3983,4.3725,4.3689,4.4,4.4,4.4,4.4,4.4,4.4,4.3299,4.3438,4.3429,4.3583,4.3601,4.3705,4.3739,4.3782,4.3815,4.3938,4.4007,4.4012,4.4041,4.4122,4.4196,4.4197,4.4229,4.4285,4.4276,4.4035,4.4001,4.3969,4.3935,4.4292,4.4293,4.4527,4.4529,4.453]},{"header":{"parameterUnit":"m.s-1","parameterCategory":1,"la1":30.2991,"la2":30.254,"lo1":-89.0895,"lo2":-89.0444,"dy":0.0017,"dx":0.0017,"nx":28,"ny":28,"refTime":"2025-07-08T21:00:00:Z","depth":0,"parameterNumber":3,"parameterNumberName":"V-component_of_WINDS"},"data":[0,0,0,0,0,0,0,0,0,0,0,0,0,0,0,0,0,0,0,0,0,0,0,0,0,0,0,0,0,0,0,0,0,0,0,0,0,0,0,0,0,0,0,0,0,0,0,0,0,0,0,0,0,0,0,0,0,0,-0.7675,-0.7676,0,-0.7748,-0.7749,-0.775,-0.7768,-0.7767,-0.7767,-0.7766,-0.7847,-0.7849,-0.7852,0,0,0,0,0,0,0,0,0,0,0,0,0,-0.7557,-0.7559,-0.7675,-0.7676,-0.7677,-0.7748,-0.7749,-0.775,-0.7768,-0.7767,-0.7767,-0.7766,-0.7846,-0.7849,-0.7852,0,0,0,0,0,0,0,0,0,0,0,0,0,-0.7617,-0.756,-0.7675,-0.7694,-0.7697,-0.7748,-0.7749,-0.775,-0.7768,-0.7767,-0.7766,-0.7766,-0.7845,-0.7848,-0.7852,-0.7891,0,0,-0.7864,-0.7866,0,0,0,0,0,0,0,0,-0.7614,-0.7621,-0.7691,-0.7693,-0.7696,-0.7748,-0.7737,-0.7798,-0.7768,-0.7741,-0.7766,-0.7765,-0.7815,-0.7821,-0.7837,-0.7895,-0.7898,-0.7865,-0.7867,-0.7869,-0.787,0,0,0,0,0,0,0,-0.7609,-0.7618,-0.7704,-0.7692,-0.7695,-0.7701,-0.7709,-0.7748,-0.7781,-0.7743,-0.7745,-0.7753,-0.7816,-0.7833,-0.7839,-0.79,-0.7864,-0.7868,-0.787,-0.7872,-0.7995,-0.7996,0,0,0,0,0,0,-0.7601,-0.7615,-0.7702,-0.7706,-0.7652,-0.7704,-0.7712,-0.7732,-0.7781,-0.7788,-0.7753,-0.7753,-0.7826,-0.7834,-0.7841,-0.7891,-0.7869,-0.7872,-0.7874,-0.7994,-0.7995,-0.7996,0,0,0,0,0,0,-0.7599,-0.7609,-0.7699,-0.7661,-0.7673,-0.7707,-0.7729,-0.7734,-0.7751,-0.7788,-0.7795,-0.7764,-0.7826,-0.7836,-0.7879,-0.7894,-0.7874,-0.7877,-0.7993,-0.7994,-0.7996,-0.799,0,0,0,0,0,0,-0.7595,-0.7608,-0.7621,-0.7661,-0.7675,-0.7733,-0.7729,-0.7736,-0.7757,-0.7757,-0.78,-0.7807,-0.7826,-0.7873,-0.7882,-0.7899,-0.7881,-0.7992,-0.7994,-0.7995,-0.7989,-0.7991,-0.7993,0,0,0,0,0,-0.7591,-0.7618,-0.7622,-0.7633,-0.7693,-0.7734,-0.7742,-0.7763,-0.7758,-0.7773,-0.7797,-0.7805,-0.789,-0.7877,-0.7888,-0.7906,-0.7991,-0.7993,-0.7995,-0.7988,-0.7991,-0.7993,0,0,0,0,0,0,-0.7581,-0.7624,-0.7629,-0.7669,-0.7698,-0.7737,-0.7757,-0.7764,-0.7797,-0.7796,-0.7822,-0.7831,-0.7873,-0.7894,-0.7878,-0.7947,-0.7941,-0.7945,-0.7932,-0.7934,-0.7936,-0.7931,-0.7884,0,0,0,0,0,-0.7584,-0.7612,-0.7648,-0.768,-0.7694,-0.7723,-0.7742,-0.7755,-0.7786,-0.7799,-0.7827,-0.7858,-0.7892,-0.7914,-0.7948,-0.7992,-0.8002,-0.801,-0.8012,-0.8013,-0.8017,-0.8043,-0.8048,-0.8003,-0.8003,-0.8003,0,0,-0.759,-0.7616,-0.7633,-0.7679,-0.7703,-0.7734,-0.7733,-0.7765,-0.7789,-0.7805,-0.7846,-0.7867,-0.7905,-0.7948,-0.7969,-0.7967,-0.8032,-0.8016,-0.8017,-0.802,-0.8046,-0.805,-0.8054,-0.8004,-0.8004,-0.8004,0,0,-0.7616,-0.7638,-0.7668,-0.7691,-0.7726,-0.7745,-0.7752,-0.779,-0.7804,-0.7846,-0.7858,-0.7888,-0.7945,-0.7972,-0.7993,-0.8029,-0.8038,-0.8039,-0.805,-0.8075,-0.8078,-0.8082,-0.8096,-0.8101,-0.8043,-0.8043,-0.8043,0,-0.7619,-0.7664,-0.7683,-0.7714,-0.7735,-0.7748,-0.778,-0.7802,-0.7847,-0.7862,-0.7859,-0.7932,-0.7958,-0.8008,-0.8017,-0.8033,-0.8043,-0.8035,-0.8076,-0.8079,-0.8083,-0.8097,-0.8102,-0.8043,-0.8043,-0.8043,-0.8043,0,-0.7667,-0.7698,-0.7718,-0.7759,-0.7782,-0.7814,-0.7839,-0.786,-0.7871,-0.7891,-0.7934,-0.7965,-0.8006,-0.8018,-0.803,-0.8071,-0.8069,-0.807,-0.8065,-0.8087,-0.81,-0.8106,-0.8043,-0.8043,-0.8043,-0.8043,0,0,-0.7691,-0.7741,-0.7748,-0.7767,-0.7807,-0.7832,-0.7865,-0.7902,-0.7921,-0.7951,-0.7981,-0.8029,-0.803,-0.8054,-0.8069,-0.8091,-0.8119,-0.809,-0.8091,-0.8095,-0.8168,-0.8168,-0.8173,-0.8125,-0.8126,-0.8127,-0.8165,0,-0.7723,-0.778,-0.7797,-0.7846,-0.7876,-0.7888,-0.7917,-0.7945,-0.7965,-0.7994,-0.8016,-0.805,-0.8049,-0.8064,-0.8086,-0.8111,-0.8134,-0.8108,-0.8155,-0.8156,-0.8146,-0.818,-0.818,-0.8215,-0.8171,-0.8171,-0.8172,0,-0.7769,-0.7798,-0.7849,-0.7885,-0.7898,-0.7923,-0.7959,-0.7986,-0.8019,-0.8032,-0.8058,-0.8071,-0.8108,-0.8099,-0.8151,-0.8133,-0.8153,-0.8168,-0.817,-0.8177,-0.8166,-0.8189,-0.8227,-0.8233,-0.818,-0.818,-0.8179,0,-0.7783,-0.7835,-0.7872,-0.7888,-0.7931,-0.7948,-0.7967,-0.7999,-0.8021,-0.8053,-0.8067,-0.8104,-0.8125,-0.8154,-0.8177,-0.8168,-0.8227,-0.822,-0.8241,-0.824,-0.8254,-0.8253,-0.8297,-0.8264,-0.8264,-0.8264,-0.8264,0,-0.7819,-0.7849,-0.7879,-0.7902,-0.7938,-0.7958,-0.7994,-0.8013,-0.8042,-0.807,-0.8084,-0.8111,-0.8139,-0.8171,-0.8189,-0.8231,-0.824,-0.8252,-0.8257,-0.8252,-0.8251,-0.8267,-0.8266,-0.8266,-0.8265,-0.8265,-0.8265,0,-0.7841,-0.7862,-0.7904,-0.794,-0.7949,-0.7974,-0.8006,-0.803,-0.8049,-0.8085,-0.8095,-0.8126,-0.8164,-0.8189,-0.8238,-0.8251,-0.8296,-0.83,-0.8284,-0.8287,-0.8307,-0.8305,-0.8364,-0.8373,-0.8332,-0.8332,-0.8333,0,-0.7863,-0.7887,-0.7925,-0.7944,-0.7962,-0.7993,-0.8014,-0.8036,-0.8058,-0.8097,-0.8117,-0.8155,-0.8187,-0.8246,-0.8275,-0.8313,-0.8318,-0.8336,-0.8324,-0.8319,-0.8321,-0.832,-0.8323,-0.8339,-0.8339,-0.8339,-0.834,0,-0.7901,-0.7909,-0.7939,-0.7972,-0.7997,-0.8024,-0.8052,-0.8068,-0.8094,-0.8119,-0.8156,-0.8181,-0.8229,-0.8268,-0.8308,-0.833,-0.834,-0.8343,-0.835,-0.8346,-0.8336,-0.8343,-0.8291,-0.8342,-0.8342,-0.8341,-0.8341,-0.8341,-0.7925,-0.7947,-0.7977,-0.8009,-0.8032,-0.8058,-0.8082,-0.8103,-0.8134,-0.8174,-0.8185,-0.8225,-0.8258,-0.8313,-0.8335,-0.8368,-0.8367,-0.8376,-0.8379,-0.8382,-0.8383,-0.8329,-0.8375,-0.8375,-0.8375,-0.8375,-0.8375,0,-0.7965,-0.7984,-0.8013,-0.8051,-0.8077,-0.8081,-0.8112,-0.8135,-0.8168,-0.8197,-0.8228,-0.8271,-0.8309,-0.8339,-0.8378,-0.8399,-0.8404,-0.8408,-0.8408,-0.8413,-0.8381,-0.8372,-0.8403,-0.8403,-0.8403,-0.8403,-0.8403,-0.8403,-0.7988,-0.8026,-0.8038,-0.8088,-0.8108,-0.8145,-0.8163,-0.8187,-0.821,-0.8258,-0.8288,-0.8306,-0.8337,-0.8378,-0.8413,-0.8421,-0.8436,-0.8439,-0.8449,-0.8419,-0.8416,-0.8413,-0.8404,-0.8442,-0.8442,-0.8479,-0.8479,-0.848]}]]